When you browse on this site, cookies collect data to enhance your experience and personalize the content and advertising you see.
Visit our Privacy Policy to learn more. By continuing to use the site, you agree to this use of cookies and data.
  • In Austria
  • List of Countries
  • For 7 days
  • Water Temperature
  • Satellite Maps
  • Weather Map
  • News
  • Weather Widgets
  • user-avatar
    Login

    Hourly Weather Lankaran

    Today, 26 May, Sunday

    Time Temperature Precipitation Wind Pressure Humidity
    00:00 +20°C° 0 mm 4 mps 633 mmHg 27%
    01:00 +19°C° 0 mm 4 mps 633 mmHg 28%
    02:00 +18°C° 0 mm 4 mps 633 mmHg 29%
    03:00 +18°C° 0 mm 4 mps 633 mmHg 30%
    04:00 +18°C° 0 mm 4 mps 633 mmHg 32%
    05:00 +19°C° 0 mm 4 mps 634 mmHg 34%
    06:00 +19°C° 0 mm 4 mps 634 mmHg 36%
    07:00 +21°C° 0 mm 4 mps 635 mmHg 33%
    08:00 +23°C° 0 mm 4 mps 636 mmHg 31%
    09:00 +26°C° 0 mm 3 mps 636 mmHg 28%
    10:00 +26°C° 0 mm 3 mps 636 mmHg 29%
    11:00 +26°C° 0 mm 3 mps 636 mmHg 30%
    12:00 +26°C° 0 mm 3 mps 636 mmHg 31%
    13:00 +25°C° 0.2 mm 3 mps 635 mmHg 37%
    14:00 +24°C° 0.2 mm 3 mps 634 mmHg 42%
    15:00 +23°C° 0.2 mm 2 mps 633 mmHg 48%
    16:00 +21°C° 0 mm 2 mps 633 mmHg 52%
    17:00 +20°C° 0 mm 2 mps 633 mmHg 55%
    18:00 +19°C° 0 mm 3 mps 633 mmHg 58%
    19:00 +17°C° 0.1 mm 2 mps 632 mmHg 64%
    20:00 +15°C° 0.1 mm 1 mps 632 mmHg 69%
    21:00 +13°C° 0.1 mm 1 mps 632 mmHg 75%
    22:00 +13°C° 0 mm 1 mps 632 mmHg 77%
    23:00 +13°C° 0 mm 1 mps 632 mmHg 79%

    Tomorrow, 27 May, Monday

    Time Temperature Precipitation Wind Pressure Humidity
    00:00 +12°C° 0 mm 2 mps 632 mmHg 82%
    01:00 +12°C° 0 mm 2 mps 632 mmHg 83%
    02:00 +12°C° 0 mm 2 mps 632 mmHg 84%
    03:00 +12°C° 0 mm 2 mps 633 mmHg 86%
    04:00 +13°C° 0 mm 2 mps 633 mmHg 82%
    05:00 +14°C° 0 mm 1 mps 634 mmHg 78%
    06:00 +14°C° 0 mm 1 mps 635 mmHg 74%
    07:00 +16°C° 0 mm 2 mps 635 mmHg 67%
    08:00 +17°C° 0 mm 3 mps 636 mmHg 59%
    09:00 +18°C° 0 mm 4 mps 637 mmHg 52%
    10:00 +19°C° 0 mm 4 mps 637 mmHg 50%
    11:00 +19°C° 0 mm 4 mps 637 mmHg 49%
    12:00 +19°C° 0 mm 4 mps 637 mmHg 48%
    13:00 +18°C° 0 mm 4 mps 636 mmHg 54%
    14:00 +17°C° 0 mm 5 mps 636 mmHg 60%
    15:00 +16°C° 0 mm 5 mps 636 mmHg 66%
    16:00 +15°C° 0.1 mm 4 mps 635 mmHg 70%
    17:00 +14°C° 0.1 mm 3 mps 635 mmHg 74%
    18:00 +12°C° 0.1 mm 3 mps 635 mmHg 78%
    19:00 +12°C° 0.1 mm 2 mps 635 mmHg 80%
    20:00 +10°C° 0.1 mm 2 mps 635 mmHg 83%
    21:00 +10°C° 0.1 mm 1 mps 635 mmHg 86%
    22:00 +10°C° 0 mm 1 mps 635 mmHg 85%
    23:00 +10°C° 0 mm 1 mps 635 mmHg 84%

    Day after tomorrow, 28 May, Tuesday

    Time Temperature Precipitation Wind Pressure Humidity
    00:00 +10°C° 0 mm 1 mps 635 mmHg 83%
    01:00 +9°C° 0 mm 1 mps 635 mmHg 83%
    02:00 +9°C° 0 mm 1 mps 635 mmHg 82%
    03:00 +9°C° 0 mm 1 mps 635 mmHg 82%
    04:00 +10°C° 0 mm 1 mps 636 mmHg 78%
    05:00 +12°C° 0 mm 1 mps 636 mmHg 74%
    06:00 +13°C° 0 mm 1 mps 637 mmHg 71%
    07:00 +14°C° 0 mm 2 mps 637 mmHg 65%
    08:00 +15°C° 0 mm 2 mps 638 mmHg 60%
    09:00 +17°C° 0 mm 3 mps 638 mmHg 54%
    10:00 +17°C° 0 mm 4 mps 638 mmHg 52%
    11:00 +18°C° 0 mm 4 mps 639 mmHg 50%
    12:00 +18°C° 0 mm 4 mps 639 mmHg 47%
    13:00 +18°C° 0 mm 4 mps 638 mmHg 50%
    14:00 +17°C° 0 mm 4 mps 638 mmHg 53%
    15:00 +15°C° 0 mm 4 mps 637 mmHg 55%
    16:00 +16°C° 0 mm 3 mps 637 mmHg 59%
    17:00 +14°C° 0 mm 3 mps 637 mmHg 62%
    18:00 +14°C° 0 mm 2 mps 637 mmHg 66%
    19:00 +13°C° 0 mm 2 mps 636 mmHg 73%
    20:00 +11°C° 0 mm 1 mps 636 mmHg 79%
    21:00 +10°C° 0 mm 1 mps 636 mmHg 86%
    22:00 +9°C° 0 mm 1 mps 635 mmHg 85%
    23:00 +9°C° 0 mm 1 mps 635 mmHg 84%

    29 May, Wednesday

    Time Temperature Precipitation Wind Pressure Humidity
    00:00 +9°C° 0 mm 1 mps 635 mmHg 83%
    01:00 +9°C° 0 mm 1 mps 635 mmHg 82%
    02:00 +9°C° 0 mm 1 mps 635 mmHg 81%
    03:00 +9°C° 0 mm 1 mps 634 mmHg 80%
    04:00 +10°C° 0 mm 1 mps 635 mmHg 75%
    05:00 +10°C° 0 mm 0 mps 636 mmHg 71%
    06:00 +12°C° 0 mm 0 mps 636 mmHg 66%
    07:00 +14°C° 0 mm 1 mps 637 mmHg 60%
    08:00 +16°C° 0 mm 2 mps 637 mmHg 54%
    09:00 +17°C° 0 mm 3 mps 638 mmHg 48%
    10:00 +18°C° 0 mm 3 mps 638 mmHg 47%
    11:00 +18°C° 0 mm 3 mps 638 mmHg 46%
    12:00 +19°C° 0 mm 3 mps 638 mmHg 45%
    13:00 +19°C° 0 mm 3 mps 637 mmHg 48%
    14:00 +19°C° 0 mm 3 mps 637 mmHg 50%
    15:00 +19°C° 0 mm 3 mps 637 mmHg 52%
    16:00 +18°C° 0.1 mm 3 mps 636 mmHg 58%
    17:00 +16°C° 0.1 mm 3 mps 636 mmHg 65%
    18:00 +15°C° 0.1 mm 2 mps 635 mmHg 71%
    19:00 +14°C° 0 mm 2 mps 635 mmHg 77%
    20:00 +12°C° 0 mm 1 mps 635 mmHg 82%
    21:00 +11°C° 0 mm 1 mps 635 mmHg 87%
    22:00 +11°C° 0 mm 1 mps 635 mmHg 86%
    23:00 +11°C° 0 mm 1 mps 634 mmHg 84%

    30 May, Thursday

    Time Temperature Precipitation Wind Pressure Humidity
    00:00 +10°C° 0 mm 1 mps 634 mmHg 83%
    01:00 +10°C° 0 mm 1 mps 634 mmHg 82%
    02:00 +10°C° 0 mm 1 mps 634 mmHg 81%
    03:00 +10°C° 0 mm 1 mps 634 mmHg 81%
    04:00 +11°C° 0 mm 1 mps 634 mmHg 76%
    05:00 +13°C° 0 mm 1 mps 635 mmHg 72%
    06:00 +13°C° 0 mm 0 mps 636 mmHg 68%
    07:00 +15°C° 0 mm 1 mps 636 mmHg 61%
    08:00 +17°C° 0 mm 2 mps 637 mmHg 55%
    09:00 +18°C° 0 mm 2 mps 637 mmHg 49%
    10:00 +19°C° 0 mm 2 mps 637 mmHg 47%
    11:00 +20°C° 0 mm 3 mps 637 mmHg 46%
    12:00 +21°C° 0 mm 3 mps 637 mmHg 45%
    13:00 +20°C° 0 mm 3 mps 636 mmHg 46%
    14:00 +20°C° 0 mm 3 mps 636 mmHg 47%
    15:00 +20°C° 0 mm 3 mps 636 mmHg 49%
    16:00 +19°C° 0 mm 3 mps 636 mmHg 55%
    17:00 +18°C° 0 mm 3 mps 635 mmHg 60%
    18:00 +17°C° 0 mm 2 mps 635 mmHg 66%
    19:00 +15°C° 0 mm 2 mps 635 mmHg 73%
    20:00 +14°C° 0 mm 1 mps 634 mmHg 80%
    21:00 +12°C° 0 mm 1 mps 634 mmHg 86%
    22:00 +12°C° 0 mm 1 mps 634 mmHg 85%
    23:00 +12°C° 0 mm 1 mps 634 mmHg 83%

    31 May, Friday

    Time Temperature Precipitation Wind Pressure Humidity
    00:00 +12°C° 0 mm 1 mps 634 mmHg 81%
    01:00 +12°C° 0 mm 1 mps 634 mmHg 81%
    02:00 +11°C° 0 mm 1 mps 633 mmHg 81%
    03:00 +11°C° 0 mm 1 mps 633 mmHg 80%
    04:00 +12°C° 0 mm 1 mps 634 mmHg 76%
    05:00 +13°C° 0 mm 1 mps 634 mmHg 72%
    06:00 +15°C° 0 mm 1 mps 635 mmHg 68%
    07:00 +16°C° 0 mm 1 mps 636 mmHg 61%
    08:00 +17°C° 0 mm 2 mps 636 mmHg 54%
    09:00 +19°C° 0 mm 2 mps 637 mmHg 48%
    10:00 +19°C° 0 mm 3 mps 636 mmHg 46%
    11:00 +20°C° 0 mm 3 mps 636 mmHg 44%
    12:00 +21°C° 0 mm 3 mps 636 mmHg 43%
    13:00 +21°C° 0 mm 3 mps 636 mmHg 44%
    14:00 +21°C° 0 mm 3 mps 636 mmHg 46%
    15:00 +20°C° 0 mm 3 mps 635 mmHg 47%
    16:00 +19°C° 0 mm 3 mps 635 mmHg 53%
    17:00 +18°C° 0 mm 3 mps 635 mmHg 58%
    18:00 +17°C° 0 mm 2 mps 634 mmHg 64%
    19:00 +15°C° 0 mm 2 mps 634 mmHg 70%
    20:00 +14°C° 0 mm 1 mps 634 mmHg 75%
    21:00 +13°C° 0 mm 1 mps 634 mmHg 81%
    22:00 +12°C° 0 mm 1 mps 633 mmHg 80%
    23:00 +12°C° 0 mm 1 mps 633 mmHg 80%
    Show more